Wind_Speed
12 11 11 11 11 13 12 12 13 14 15 15 15 13 12 11 11 8 5 7 4 6 4 12 14 13 20 4 5 3 6 19 25 16 12 7 12 8 4 7 2 1 6 10 29
11 11 12 12 12 11 13 12 13 13 15 14 13 12 10 9 7 6 9 9 10 7 7 5 4 11 5 5 5 8 10 16 15 2 4 6 9 7 6 5 2 5 9 23 29
12 11 12 13 12 12 12 13 12 13 13 11 11 9 7 3 3 2 3 5 8 10 10 9 7 7 12 5 3 4 11 10 11 17 10 6 7 7 7 4 4 13 20 14 23
12 12 12 13 13 12 12 13 10 11 11 10 7 6 4 3 3 2 4 6 8 9 10 9 6 8 5 8 4 10 4 13 7 5 6 1 7 6 1 4 4 16 21 13 17
12 13 12 13 13 12 12 12 10 9 8 8 6 5 1 2 5 3 2 5 4 5 7 3 4 7 5 6 8 5 5 6 6 9 2 5 4 3 5 9 7 2 13 16 16
12 13 14 14 13 13 12 12 9 7 6 7 7 3 1 3 2 1 1 4 6 7 6 3 4 3 2 6 7 3 2 7 5 11 2 3 1 2 5 7 11 7 7 10 14
13 13 14 13 13 13 13 9 9 8 7 7 6 4 2 7 2 2 3 4 1 4 3 5 4 3 3 2 6 4 1 5 7 14 6 3 7 5 4 7 8 9 7 4 4
13 13 13 13 12 13 13 12 10 8 6 6 4 2 4 5 6 4 5 10 4 2 2 3 5 3 1 4 6 5 2 4 4 15 9 5 4 3 2 6 7 9 8 9 4
12 13 14 13 11 12 14 12 9 7 6 5 3 2 6 4 1 2 3 1 6 2 3 3 3 2 1 2 2 3 5 4 5 13 9 9 2 5 5 8 3 8 8 8 9
11 12 13 11 10 11 13 10 3 2 1 3 5 3 5 1 2 3 2 3 2 4 1 4 3 1 2 2 1 5 2 4 4 11 10 18 8 5 8 8 4 6 8 10 9
11 11 13 9 8 11 7 1 3 2 0 4 2 3 2 5 4 3 4 2 2 3 3 3 3 3 2 5 0 6 3 2 2 5 8 13 10 6 3 5 4 9 9 11 11
10 10 10 7 7 5 4 2 2 2 2 4 7 5 5 2 3 4 5 1 1 2 1 5 3 6 5 8 3 4 7 2 6 3 3 9 5 9 11 4 3 6 12 15 12
10 9 7 5 6 3 2 3 2 3 3 2 2 0 2 4 3 4 3 1 3 3 3 5 4 9 4 5 3 3 5 6 3 6 5 5 3 3 5 7 10 10 15 19 12
8 8 5 4 3 2 3 1 4 2 4 3 2 1 3 2 2 6 1 2 2 2 3 3 5 6 5 3 4 2 5 3 16 2 2 4 3 4 2 13 12 14 20 21 15
7 6 5 6 1 2 3 4 4 2 5 5 1 1 3 3 5 1 1 1 4 3 2 5 4 3 2 3 6 1 1 8 8 4 4 1 4 3 18 15 18 20 21 16 9
7 6 8 6 3 3 5 5 3 5 2 4 2 2 3 3 3 4 2 1 3 3 2 3 3 4 2 8 3 2 3 12 8 3 3 3 2 2 11 23 23 11 9 11 8
8 10 10 5 3 7 7 3 4 5 3 5 2 2 1 2 2 2 2 4 2 4 2 2 3 2 3 5 5 3 2 4 4 4 3 8 4 7 6 13 19 14 8 8 7
10 15 7 6 7 7 5 4 7 3 3 3 2 1 2 2 0 4 3 4 3 2 3 3 5 1 2 2 3 3 2 2 3 4 2 7 4 5 4 6 9 12 9 8 9
19 12 5 7 6 7 4 5 6 5 2 2 4 5 3 2 2 3 1 2 5 5 2 3 5 4 10 5 3 2 2 2 2 3 4 3 5 8 5 5 5 11 8 9 9
16 9 4 6 6 5 4 4 3 2 1 1 2 3 2 3 2 2 2 3 3 8 4 5 4 5 3 3 3 3 2 1 3 4 3 3 3 2 2 2 3 5 8 8 8
10 3 5 5 5 4 4 4 2 1 2 2 2 1 2 2 2 1 1 4 5 2 5 4 1 1 1 1 3 2 2 1 2 3 4 4 4 4 8 3 4 3 1 3 4
8 3 4 5 3 1 2 5 3 1 4 3 3 1 2 3 2 1 1 2 7 3 3 1 1 2 4 3 2 3 3 2 3 2 2 3 2 3 6 4 6 5 5 5 4
5 3 1 1 3 1 2 3 3 2 2 2 2 2 1 1 1 2 2 5 7 3 2 1 2 3 3 2 2 4 3 1 4 3 2 4 3 3 5 6 6 6 4 4 6
3 3 2 2 1 7 5 3 2 1 2 3 3 3 1 3 3 3 2 2 6 3 5 1 2 3 4 4 3 2 3 2 4 3 1 2 3 4 5 6 6 4 4 4 4
2 3 4 3 2 5 3 5 4 4 1 2 3 3 2 2 2 3 3 5 3 7 3 2 1 0 3 4 2 2 2 5 2 4 4 0 1 3 3 1 3 3 2 3 3
4 4 3 2 5 6 3 4 5 3 2 2 5 1 3 2 1 1 1 2 1 6 5 4 3 4 2 3 5 1 3 6 0 3 9 3 5 3 3 4 5 1 1 3 3
3 3 4 2 4 5 5 6 6 7 3 4 5 2 4 4 1 2 3 4 2 2 3 3 3 3 3 4 2 4 1 5 4 3 5 5 5 2 2 4 4 4 3 3 6
Wind_Direction
315 314 317 319 319 320 316 320 314 327 323 316 306 302 302 298 294 286 240 235 250 291 294 298 321 282 304 228 194 260 239 241 213 224 222 189 211 154 144 161 149 179 161 142 138
312 314 315 318 317 319 314 324 322 323 321 314 307 304 300 301 280 247 267 263 274 283 301 265 296 322 289 249 182 222 235 213 234 317 229 309 208 163 128 171 153 113 107 129 139
312 313 314 316 316 318 318 316 323 328 323 319 310 307 302 298 265 237 49 275 283 281 281 268 216 264 277 218 206 230 235 274 242 245 315 321 337 332 153 201 188 148 139 151 134
314 312 310 312 314 315 315 317 319 327 329 333 329 324 310 277 238 199 328 318 296 281 279 271 224 214 231 243 197 239 246 240 317 225 250 62 320 120 95 329 296 152 153 147 146
312 312 311 312 312 312 313 318 315 323 322 335 328 336 2 262 253 138 3 347 347 349 308 260 230 204 207 252 258 222 252 279 218 299 10 321 155 172 184 349 343 270 158 167 162
311 310 309 309 309 309 312 318 314 314 318 330 342 345 348 261 184 359 19 355 7 13 13 4 267 208 252 215 290 281 312 248 225 197 284 294 47 162 134 15 15 6 170 176 171
308 308 308 308 307 309 310 315 311 304 296 310 334 353 309 247 261 246 295 275 24 14 332 346 308 142 82 245 285 244 284 258 209 174 179 54 272 201 51 43 28 10 348 211 190
304 306 308 308 305 303 306 304 308 295 281 297 310 307 250 258 287 249 282 289 239 320 348 36 67 86 142 304 270 181 15 206 144 157 140 153 275 139 61 76 20 359 12 329 242
300 301 304 304 300 305 305 305 308 285 257 287 302 187 278 292 260 213 276 353 320 258 48 83 53 73 134 336 310 61 188 225 161 177 129 160 29 278 150 80 308 352 358 339 283
296 298 302 298 303 305 305 301 288 299 272 227 269 327 273 294 135 217 259 292 282 309 283 41 5 158 167 153 268 170 161 248 156 179 154 175 214 301 113 109 16 330 340 323 279
290 293 297 292 302 301 318 75 41 4 107 185 315 257 3 337 285 245 212 213 260 347 303 21 55 230 203 209 138 285 169 159 64 175 145 175 165 153 58 88 23 326 318 292 267
282 287 296 296 292 292 299 86 111 198 14 243 254 274 288 6 301 309 164 81 287 262 130 360 325 287 253 139 140 277 152 135 323 185 104 168 131 151 145 139 226 272 283 263 252
271 282 286 288 280 257 185 135 172 170 93 324 186 234 10 2 316 314 178 153 267 273 212 187 251 324 246 149 89 295 182 146 201 103 18 136 102 189 100 204 185 188 253 263 244
259 272 260 259 269 204 158 122 155 159 78 302 237 82 32 12 282 321 14 114 312 282 313 241 292 274 251 108 183 245 192 148 222 206 133 255 138 176 212 233 204 206 226 249 234
241 252 215 217 290 127 148 133 147 78 54 282 8 59 41 37 312 51 11 82 225 267 18 269 346 343 143 186 193 73 235 189 178 117 151 342 115 250 187 219 215 219 210 229 202
223 218 187 183 205 140 141 152 114 48 268 333 138 343 343 57 320 298 333 314 283 343 331 247 276 247 207 143 124 2 184 101 74 73 1 200 110 239 178 206 215 211 211 216 211
212 186 177 168 193 160 144 91 47 98 340 303 343 105 223 352 328 299 290 313 64 8 353 247 207 95 68 95 19 60 138 125 157 175 210 158 114 252 263 230 215 205 222 217 212
181 160 182 181 158 157 136 58 77 242 210 285 358 127 301 22 89 338 358 359 40 122 287 25 98 49 330 79 125 38 360 125 127 136 137 139 216 257 285 243 205 200 210 211 204
149 159 175 166 170 159 96 57 181 195 256 293 8 63 326 46 24 4 240 243 216 186 326 17 62 44 45 34 23 101 12 348 115 56 85 195 289 312 3 9 183 174 184 224 230
152 161 180 169 166 136 81 149 149 156 8 108 90 345 341 356 50 35 74 271 302 196 197 352 79 10 161 171 52 91 75 63 351 125 92 273 275 257 327 95 94 134 197 229 227
143 140 163 172 176 61 119 198 149 29 73 81 122 309 346 343 359 349 15 308 360 334 54 3 88 340 7 241 181 33 4 269 5 127 148 149 259 235 273 225 118 34 231 130 150
151 121 163 183 65 52 129 155 149 38 17 91 103 159 215 360 31 102 314 247 340 341 43 10 122 51 283 298 209 160 237 160 117 303 66 137 292 325 344 101 103 68 44 21 52
136 120 160 226 129 10 190 115 110 117 42 79 65 200 24 276 139 129 328 269 332 108 183 306 35 102 351 347 113 256 259 141 83 71 16 104 254 3 9 48 53 90 51 30 58
118 106 347 48 217 131 131 144 143 74 105 69 69 60 330 41 37 147 315 291 332 65 168 219 139 156 181 212 149 236 219 178 104 87 157 228 322 8 343 30 21 14 77 70 81
91 203 178 162 255 131 127 143 140 146 88 59 78 75 80 28 47 28 12 319 353 14 37 10 69 299 263 239 183 213 190 172 105 169 82 222 221 4 33 46 341 301 20 25 75
135 135 39 109 103 107 147 173 155 133 148 106 112 66 111 135 233 179 330 32 259 322 351 329 319 11 314 11 176 146 166 182 48 70 134 121 293 306 9 64 19 312 162 269 265
142 95 103 166 119 111 193 167 178 142 13 126 133 93 137 175 247 286 306 304 282 319 322 357 356 16 320 343 33 27 186 181 153 143 143 169 223 316 320 28 61 43 30 251 248
Height
824 822 820 819 816 815 814 810 809 806 804 803 801 799 797 796 794 792 791 789 789 789 790 790 788 787 787 783 783 784 785 776 767 766 761 750 750 744 746 754 752 752 752 751 758
822 820 818 816 814 813 811 808 806 804 802 800 798 797 795 793 792 789 786 787 787 788 789 789 787 787 789 781 779 780 780 764 762 764 762 756 743 740 750 756 757 754 752 755 760
820 818 817 815 813 811 808 807 804 802 800 798 796 794 794 793 792 786 785 786 786 786 786 787 786 793 786 779 775 777 773 765 758 763 761 759 753 745 747 757 751 750 755 756 759
818 816 813 812 810 808 806 804 802 800 799 796 794 793 792 793 793 785 785 784 784 784 783 783 782 786 787 779 773 778 768 766 764 764 767 761 759 757 755 757 749 739 744 753 759
815 814 811 809 808 806 803 802 800 798 797 796 794 792 792 793 788 784 784 783 783 781 781 780 780 780 783 780 770 772 767 763 762 762 763 760 758 755 752 754 748 749 746 750 756
812 810 809 806 806 804 801 799 798 796 796 796 793 792 792 794 785 784 784 783 782 781 780 779 777 776 777 779 774 764 764 764 764 770 768 768 760 760 759 758 754 753 751 751 753
810 807 806 804 803 801 799 796 796 794 794 795 793 792 792 790 784 784 783 782 782 781 780 779 777 779 782 779 776 763 765 762 759 764 766 769 767 759 758 758 762 763 761 755 755
806 805 803 801 800 799 797 794 793 793 792 794 793 792 791 784 783 783 782 782 782 781 780 779 778 779 782 781 767 763 764 762 756 760 763 775 768 757 759 760 765 768 768 766 759
803 802 801 798 797 797 794 792 791 791 791 792 792 792 791 784 782 782 782 782 780 780 779 780 780 781 783 782 771 767 766 766 755 754 759 770 765 767 763 756 769 771 772 771 767
799 798 798 796 795 795 792 789 789 790 790 791 791 797 787 783 781 781 782 781 781 780 780 783 784 782 783 783 768 771 770 771 757 754 759 772 771 773 761 766 769 777 775 776 774
797 795 795 794 793 793 790 789 792 793 790 789 789 787 783 783 782 781 781 781 781 781 789 790 799 796 775 779 782 782 771 763 753 746 755 764 761 767 761 767 774 773 776 776 773
794 792 792 792 792 791 790 789 790 792 791 786 786 786 784 784 784 781 781 783 782 789 791 796 797 775 772 778 779 774 768 773 762 752 757 764 768 771 773 777 780 782 781 779 772
790 789 790 790 790 791 790 790 790 790 793 786 784 784 785 785 784 782 781 781 783 786 787 795 781 771 772 775 777 774 766 766 768 759 766 765 773 775 770 781 785 785 784 774 770
787 787 788 789 790 789 789 789 789 789 809 790 784 786 786 786 786 782 780 783 783 785 783 789 779 772 766 768 778 772 767 765 770 776 772 774 783 783 779 778 776 780 784 769 771
783 784 785 786 786 788 789 788 789 790 841 788 786 786 788 792 793 783 781 781 785 784 786 793 783 775 769 766 772 770 764 767 765 771 769 773 773 771 774 777 770 767 771 762 762
779 782 783 785 786 787 786 788 790 815 839 799 785 787 789 792 791 786 782 782 781 784 782 787 782 781 769 766 768 769 764 762 766 772 783 771 769 767 766 760 755 761 760 759 758
776 779 781 783 784 785 786 789 810 826 796 795 783 789 792 791 789 786 784 792 795 798 788 781 778 768 766 772 775 775 765 766 771 775 789 776 777 763 753 745 739 745 750 749 754
774 778 779 781 782 783 786 801 827 797 801 781 780 786 789 795 796 792 791 802 791 791 787 773 774 774 770 774 782 776 776 766 759 783 778 769 775 758 743 741 739 742 748 752 755
773 777 779 780 781 782 789 821 808 807 785 791 788 811 787 790 793 790 809 801 786 787 782 782 772 771 770 770 778 778 774 775 773 769 786 780 766 752 746 743 742 744 749 751 752
770 775 777 779 779 781 793 798 792 781 783 782 795 783 794 788 801 794 802 781 778 779 777 777 779 776 780 780 782 781 780 785 784 771 788 780 769 764 752 748 747 746 748 749 748
768 774 777 778 779 784 805 804 782 779 780 783 789 786 791 791 786 813 790 780 778 771 773 781 781 787 779 780 781 781 778 777 770 790 791 799 780 766 765 753 752 751 747 745 746
763 772 775 777 788 792 800 780 776 781 781 784 788 788 795 790 784 789 793 785 779 775 785 781 783 797 787 773 773 775 773 773 797 779 806 815 782 759 763 757 755 755 753 751 749
760 772 775 775 794 800 778 776 779 782 783 783 785 787 785 786 786 781 792 782 778 776 779 780 782 789 789 773 775 776 770 765 773 789 794 813 787 760 762 759 756 758 756 755 756
755 776 778 777 777 780 781 780 785 782 783 783 786 789 787 786 784 787 800 782 778 775 774 777 778 791 798 776 777 786 774 768 784 804 789 800 775 760 760 757 757 758 759 759 759
749 763 761 779 778 776 776 778 783 786 784 784 789 789 792 789 782 788 792 789 777 777 778 776 777 778 771 769 769 772 773 772 787 774 776 776 774 765 763 759 757 758 758 759 760
748 758 763 769 770 776 777 781 785 787 785 787 791 789 791 794 799 789 790 792 791 786 784 784 784 777 781 762 766 768 768 771 769 768 774 778 775 768 764 763 765 761 762 762 762
742 745 750 768 774 779 783 783 783 784 786 785 789 793 793 795 796 794 794 793 791 792 782 779 785 785 787 768 762 781 769 771 768 766 769 777 772 767 766 765 767 767 765 764 764